Location: Gwatt
(46.7204°N, 7.6223°E)
Time: 14:38:44
(UTC+00:00)

deb Explorer IX - Pass Details

Date: 29 January 2021
Orbit: 537 x 1102 km, 38.8° (Epoch: 01 March)

Event Time Altitude Azimuth Distance (km) Brightness Sun altitude
Rises 16:07:18 0° 244° (WSW) 3,873 ? 2.4°
Reaches altitude 10° 16:10:19 10° 237° (WSW) 2,876 ? 2.0°
Maximum altitude 16:16:44 39° 172° (S) 1,432 ? 1.0°
Drops below altitude 10° 16:22:28 10° 105° (ESE) 2,569 ? 0.1°
Sets 16:25:01 0° 98° (E) 3,419 ? -0.3°
